Regional & State Weather Roundups


674 
ASUS42 KMLB 161807
RWRMLB
HOURLY WEATHER ROUNDUP AROUND FLORIDA
NATIONAL WEATHER SERVICE OFFICE MELBOURNE FL
100 PM EST SAT DEC 16 2017
  
CITY           SKY/WX    TMP DP  RH WIND       PRES   REMARKS
MELBOURNE      SUNNY     74  57  55 NE13      30.21F                  
FORT PIERCE    CLOUDY    73  61  65 NE8       30.21F                  
ORLANDO INTL   MOSUNNY   72  51  47 NE6       30.22F                  
DAYTONA BEACH  PTSUNNY   63  51  65 N6        30.25F                  
VERO BEACH     CLOUDY    73  59  61 NE8       30.21F                  
$$
...ELSEWHERE ACROSS CENTRAL FLORIDA...
  
CITY           SKY/WX    TMP DP  RH WIND       PRES   REMARKS
PATRICK AFB    SUNNY     71  57  60 N13       30.21F                  
KSC            PTSUNNY   69  59  69 N8        30.22F                  
CAPE CANAVERAL SUNNY     71  54  54 N9        30.21F                  
TITUSVILLE     SUNNY     72  54  53 N13       30.24F                  
ORLANDO EXEC   MOSUNNY   70  50  49 N6        30.23F                  
LEESBURG       PTSUNNY   67  49  52 NE7       30.24F                  
SANFORD        PTSUNNY   68  49  50 N8        30.23F                  
DELAND         CLOUDY    61  50  67 NE7       30.25F                  
NEW SMYRNA BCH CLOUDY    64  52  63 N9        30.25F                  
ORMOND BEACH   CLOUDY    61  50  67 NE7       30.26F                  
WINTER HAVEN   SUNNY     72  54  53 E6        30.23F                  
KISSIMMEE      SUNNY     72  52  49 N5        30.23F                  
OKEECHOBEE     SUNNY     75  57  53 E3        30.20F                  
TAMPA          PTSUNNY   74  56  53 VRB3      30.21F                  
$$
...NORTHERN FLORIDA...
  
CITY           SKY/WX    TMP DP  RH WIND       PRES   REMARKS
PALM COAST     CLOUDY    61  48  63 N8        30.26F                  
ST AUGUSTINE   SUNNY     57  44  62 N10       30.28F                  
OCALA          CLOUDY    60  45  57 NE5       30.25F                  
GAINESVILLE    SUNNY     59  38  45 VRB3      30.28F                  
JACKSONVILLE   MOSUNNY   61  32  33 VRB3      30.27F                  
TALLAHASSEE    MOSUNNY   59  29  31 E6        30.26F                  
$$
...ALONG THE SOUTHEAST COAST TO THE KEYS...
  
CITY           SKY/WX    TMP DP  RH WIND       PRES   REMARKS
STUART         MOSUNNY   75  66  73 N8        30.22F                  
WEST PALM BCH  PTSUNNY   76  60  57 E7        30.19F                  
MIAMI          PTSUNNY   81  62  52 NE9       30.16F                  
KEY WEST       MOSUNNY   75  62  64 NE9       30.15F                  
$$
...MARINE REPORTS...
  
STATION/POSITION TIME  TEMP    WIND        PRES    WAVE   SWELL
                       AIR SEA DIR/SP/G            HT/PER HT/PER
                 (UTC) (F)     (DEG/KT/KT) (MB)    (FT/S) (FT/S)
ST AUGUSTINE FP  1800   56 62   10/ 12/ 13 1025.1F
20NM E CAPE CANA 1750   70 77  360/ 10/ 12 1023.3F   3/ 6   2/ 6
TRIDENT PIER     1748   70 67  350/  8/ 11 1025.0F
SEBASTIAN INLET  1800   67 68   20/  9     1024.0
4NM E PORT CANAV 1753      68                N/A     1/11
6NM NE FPR INLET 1730      72                N/A     2/ 4
SETTLEMENT PT GB 1800   73      20/  7/  8 1022.5F
$$